Home   Weather   Idar-Oberstein   Past weeks

Flag for Germany Past Weather in Idar-Oberstein, Rhineland-Palatinate, Germany — Yesterday and Last 2 Weeks

Now
23 °F

Clear.


Feels Like: 11 °F
Forecast: 9 / 28 °F
Wind: 13 mph from Southeast

Location: Hahn

Current Time: Jan 21, 2017 at 7:34:01 am

Latest Report: Jan 21, 2017 at 6:50 am


Visibility: 10 mi

Pressure: 30.33 "Hg

Humidity: 63%

Dew Point: 12 °F

Location of Idar-ObersteinLocation

Past Weather in Idar-Oberstein — Graph

°F

Idar-Oberstein Temperature Yesterday

Maximum temperature yesterday: 32 °F (at 2:50 pm)
Minimum temperature yesterday: 19 °F (at 1:50 am)
Average temperature yesterday: 26 °F

High & Low Weather Summary for the Past Weeks

 TemperatureHumidityPressure
High39 °F (Jan 11, 5:50 pm)100% (Jan 7, 5:20 pm)30.63 "Hg (Jan 7, 5:20 pm)
Low10 °F (Jan 6, 11:50 pm)37% (Jan 20, 2:50 pm)29.06 "Hg (Jan 13, 12:50 am)
Average26 °F88%30.15 "Hg
* Reported Jan 6 6:20 am — Jan 21 6:20 am, Idar-Oberstein, Weather by CustomWeather, © 2017

Note: Actual official high and low records may vary slightly from our data, if they occured in-between our weather recording intervals... More about our weather records

Advertising

Idar-Oberstein Weather History for the Previous 24 Hours

Scroll right to see more
 ConditionsComfort  
Time TempWeatherWind HumidityBarometerVisibility
6:20 am
Sat, Jan 21
21 °FClear.10 mph68%30.33 "Hg10 mi
5:50 am21 °FClear.12 mph74%30.33 "Hg10 mi
5:20 am23 °FClear.10 mph68%30.33 "Hg10 mi
4:50 am23 °FClear.10 mph68%30.33 "Hg10 mi
4:20 am25 °FClear.10 mph69%30.33 "Hg10 mi
3:50 am25 °FClear.13 mph69%30.33 "Hg10 mi
3:20 am25 °FClear.13 mph69%30.33 "Hg10 mi
2:50 am27 °FClear.16 mph64%30.33 "Hg10 mi
2:20 am25 °FClear.15 mph63%30.33 "Hg10 mi
1:50 am25 °FClear.14 mph63%30.33 "Hg10 mi
1:20 am25 °FClear.12 mph63%30.36 "Hg10 mi
12:50 am28 °FClear.9 mph59%30.36 "Hg10 mi
12:20 am27 °FClear.9 mph59%30.36 "Hg10 mi
11:50 pm
Fri, Jan 20
28 °FClear.10 mph55%30.36 "Hg10 mi
11:20 pm28 °FClear.9 mph55%30.39 "Hg10 mi
10:50 pm28 °FClear.9 mph55%30.39 "Hg10 mi
10:20 pm28 °FClear.9 mph55%30.39 "Hg10 mi
9:50 pm30 °FClear.9 mph47%30.39 "Hg10 mi
9:20 pm30 °FClear.9 mph43%30.39 "Hg10 mi
8:50 pm28 °FPassing clouds.14 mph47%30.39 "HgN/A
8:20 pm28 °FClear.10 mph43%30.39 "Hg10 mi
7:50 pm28 °FClear.10 mph40%30.39 "Hg10 mi
7:20 pm28 °FClear.9 mph37%30.39 "Hg10 mi
6:50 pm28 °FClear.8 mph37%30.39 "Hg10 mi
6:20 pm28 °FClear.9 mph37%30.39 "Hg10 mi
5:50 pm28 °FClear.9 mph37%30.39 "Hg10 mi
5:20 pm28 °FClear.9 mph37%30.39 "Hg10 mi
4:50 pm28 °FSunny.10 mph40%30.39 "Hg10 mi
4:20 pm30 °FSunny.8 mph37%30.42 "Hg10 mi
3:50 pm30 °FSunny.8 mph37%30.42 "Hg10 mi
3:20 pm30 °FSunny.7 mph43%30.42 "Hg10 mi
2:50 pm32 °FSunny.7 mph37%30.42 "Hg10 mi
2:20 pm30 °FSunny.7 mph40%30.42 "Hg10 mi
1:50 pm30 °FSunny.8 mph40%30.42 "Hg10 mi
1:20 pm30 °FPassing clouds.9 mph40%30.42 "HgN/A
12:50 pm28 °FPassing clouds.8 mph43%30.42 "HgN/A
12:20 pm28 °FSunny.7 mph43%30.42 "Hg10 mi
11:50 am28 °FSunny.8 mph40%30.45 "Hg10 mi
11:20 am27 °FSunny.9 mph43%30.45 "Hg10 mi
10:50 am25 °FSunny.9 mph46%30.45 "Hg10 mi
10:20 am23 °FSunny.9 mph50%30.45 "Hg10 mi
9:50 am23 °FSunny.8 mph46%30.45 "Hg10 mi
9:20 am23 °FSunny.8 mph46%30.45 "Hg10 mi
8:50 am23 °FSunny.8 mph46%30.45 "Hg10 mi
8:20 am21 °FSunny.10 mph49%30.45 "Hg10 mi
7:50 am21 °FClear.8 mph49%30.45 "Hg10 mi
7:20 am21 °FClear.6 mph54%30.45 "Hg10 mi
Weather by CustomWeather, © 2017

See weather overviewHow to use our weather pages